Location: Staunton
(38.1490°N, 79.0720°W)
Time: 21:57:47
(UTC-05:00)

ISS - Pass Details

Date: 25 February 2021
Orbit: 417 x 422 km, 51.6° (Epoch: 26 February)

Event Time Altitude Azimuth Distance (km) Brightness Sun altitude
Exits shadow 05:02:06 22° 12° (NNE) 977 -1.8 -22.6°
Drops below altitude 10° 05:03:43 10° 33° (NNE) 1,495 -0.5 -22.3°
Sets 05:05:59 0° 44° (NE) 2,362 0.8 -21.8°
